Regional Weather Roundup
Issued by NWS Charleston, SC

Current Version | Previous Version | Text Only | Print | Product List | Glossary Off
Versions: 1 2 3 4 5 6 7 8 9 10 11 12 13 14 15 16 17 18 19 20 21 22 23 24 25 26 27 28 29 30 31 32 33 34 35 36 37 38 39 40 41 42 43 44 45 46 47 48 49 50

000
ASUS42 KCHS 241213
RWRCHS

REGIONAL WEATHER ROUNDUP
NATIONAL WEATHER SERVICE CHARLESTON SC
800 AM EDT TUE MAY 24 2016

NOTE: "FAIR" INDICATES FEW OR NO CLOUDS BELOW 12,000 FEET WITH NO
SIGNIFICANT WEATHER AND/OR OBSTRUCTIONS TO VISIBILITY.

NOT ALL STATIONS ARE QUALITY CONTROLLED. USE DATA WITH CAUTION...
ESPECIALLY DEWPOINT OBSERVATIONS.

SCZ027-030-031-034>040-042>050-241300-
...SOUTHEAST SOUTH CAROLINA...

CITY           SKY/WX    TMP DP  RH WIND       PRES   REMARKS
N CHARLESTON   MOSUNNY   67  57  70 CALM      30.13R
6HR MIN TEMP:  56; 6HR MAX TEMP:  67;

WATERFRONT PRK   N/A     68  59  73 NE6       30.10R
MOUNT PLEASANT FAIR      59  59 100 CALM      30.14R
JOHNS ISLAND   FAIR      66  61  82 CALM      30.14R
PINOPOLIS        N/A     72  57  60 CALM      30.05R
MONCKS CORNER  FAIR      59  55  88 CALM      30.14R
SUMMERVILLE    FAIR      59  59 100 CALM      30.14R
BEAUFORT MCAS  PTSUNNY   66  61  84 N3        30.13R
6HR MIN TEMP:  61; 6HR MAX TEMP:  67;

BEAUFORT ARPT  FAIR      68  61  77 NE5       30.12R
HILTON HEAD IS SUNNY     70  64  83 NE6       30.14R
WALTERBORO     MOSUNNY   64  59  82 CALM      30.15R
ALLENDALE      FAIR      63  57  82 CALM      30.13R

...SOUTHERN MIDLANDS AND PEE DEE...

CITY           SKY/WX    TMP DP  RH WIND       PRES   REMARKS
GEORGETOWN     FAIR      55  54  94 CALM      30.14R
KINGSTREE      FAIR      54  52  94 CALM      30.13R
ORANGEBURG     SUNNY     62  57  83 CALM      30.14R
6HR MIN TEMP:  55; 6HR MAX TEMP:  63;

BARNWELL       FAIR      66  61  82 CALM      30.14R
AIKEN          FAIR      61  54  77 CALM      30.16R
MANNING        FAIR      55  54  94 CALM      30.14R
COLUMBIA       MOSUNNY   64  55  72 CALM      30.13R
6HR MIN TEMP:  57; 6HR MAX TEMP:  64;

SUMTER         SUNNY     63  55  75 SW2       30.12R
6HR MIN TEMP:  53; 6HR MAX TEMP:  63;

FLORENCE       SUNNY     60  55  83 W5        30.13R
6HR MIN TEMP:  51; 6HR MAX TEMP:  60;

MYRTLE BEACH   SUNNY     59  50  72 CALM      30.14
N MYRTLE BEACH SUNNY     60  55  83 W6        30.13R
6HR MIN TEMP:  52; 6HR MAX TEMP:  60;


$$

GAZ063-065-086>088-099>101-113>116-118-119-134>141-150-241300-
...SOUTHEAST GEORGIA...

CITY           SKY/WX    TMP DP  RH WIND       PRES   REMARKS
SAVANNAH ARPT  MOSUNNY   68  61  78 NE3       30.12R
6HR MIN TEMP:  61; 6HR MAX TEMP:  68;

HUNTER AAF     SUNNY     68  66  92 NE2       30.10R
6HR MIN TEMP:  62; 6HR MAX TEMP:  68;

FORT STEWART   SUNNY     64  60  87 CALM      30.10R
6HR MIN TEMP:  58; 6HR MAX TEMP:  64;

STATESBORO     SUNNY     65  61  88 CALM      30.13R
SYLVANIA       SUNNY     66  58  74 SE3       30.14R
CLAXTON        FAIR      61  60  97 CALM      30.13R

...CSRA...CENTRAL AND FAR SOUTHEAST GEORGIA...

CITY           SKY/WX    TMP DP  RH WIND       PRES   REMARKS
THOMSON        SUNNY     61  60  96 CALM      30.17R
AUGUSTA-BUSH   SUNNY     61  58  90 CALM      30.12R
6HR MIN TEMP:  53; 6HR MAX TEMP:  61;

AUGUSTA-DANIEL SUNNY     66  54  65 NE3       30.14R
SWAINSBORO     FAIR      64  57  77 SE3       30.13R
VIDALIA        SUNNY     64  61  88 CALM      30.13R
EASTMAN        FAIR      61  61 100 CALM      30.14R
HAZLEHURST     FAIR      65  60  82 CALM      30.11R
ALMA           SUNNY     63  61  93 CALM      30.11R
6HR MIN TEMP:  56; 6HR MAX TEMP:  63;

WAYCROSS       SUNNY     64  60  86 CALM      30.10R
JESUP          FAIR      59  57  94 CALM      30.12R
BAXLEY         FAIR      64  63  94 CALM      30.11R
BRUNSWICK      SUNNY     63  61  94 CALM      30.11R
SAINT SIMONS   SUNNY     71  65  81 W3        30.10R
6HR MIN TEMP:  64; 6HR MAX TEMP:  74;


$$

SCZ027-028-034-036>038-045-046-048>050-GAZ119-141-241300-
...LAKE AND SUPPLEMENTAL COASTAL OBSERVATIONS...

STATION/POSITION TIME  TEMP    WIND        PRES    WAVE   SWELL
                       AIR SEA DIR/SP/G            HT/PER HT/PER/DIR
                 (UTC) (F)     (DEG/KT/KT) (MB)    (FT/S) (FT/S/D)
WINYAH BAY       NOT AVBL
LAKE MURRAY      1100   65     190/  7/  7 1019.3R
ACE BASIN NERRS  NOT AVBL
FORT PULASKI     1100   70 75   10/  5/  6 1019.3R
SAPELO ISLAND    1100   65      10/  1     1019.0R

$$

ANZ835-935-AMZ111-154-330-350-352-354-370-450-454-472-241300-
...C-MAN AND BUOY OBSERVATIONS...

STATION/POSITION TIME  TEMP    WIND        PRES    WAVE   SWELL
                       AIR SEA DIR/SP/G            HT/PER HT/PER/DIR
                 (UTC) (F)     (DEG/KT/KT) (MB)    (FT/S) (FT/S/D)
BUOY 41004       1150   71 75   20/  4/  6 1019.7R   2/ 8   2/ 8
BUOY 41008       1150   76 75  120/  2/  4 1019.4R   2/ 9   2/120/ 9
FOLLY BEACH CMAN 1200   70      70/  3/  4 1020.5R
CAPERS NEARSHORE 1108   70 74   50/  4/  6 1019.4R
FRIPP NEARSHORE  1108   72 74   70/  8/ 10 1018.5R


STATION/POSITION TIME  TEMP    WIND        PRES    WAVE   SWELL
                       AIR SEA DIR/SP/G            HT/PER HT/PER/DIR
                 (UTC) (F)     (DEG/KT/KT) (MB)    (FT/S) (FT/S/D)
5E ST. MARYS GA  1151      77                N/A     2/ 9
FRYING PAN BUOY  1100   67 76  330/ 10/ 12 1019.0R
BUOY 41025       1150   65 67  290/ 14/ 16 1018.3R   5/ 9   3/100/ 9
CAPE LOOKOUT NC  1200   67     290/  9/ 11 1018.7R
BUOY 41002       1150   74 77  270/ 12/ 16 1018.1R   4/ 6   3/350/ 6
BUOY 41010       1120   77 78   80/  6/  8 1018.5R
ST AUGUSTINE FL  1200   77 78  140/  9/  9 1019.6R


$$



USA.gov is the U.S. government's official web portal to all federal, state and local government web resources and services.